Dalhart, TX

7:18 PM CDT on August 29, 2016 (GMT -0500)
Dalhart Municipal

Weather History for KDHT - April, 2012

Change the Weather History Date:

Sunday, April 22, 2012

  Actual Average Record
Temperature  
Mean Temperature 58 °F 56 °F  
Max Temperature 71 °F 71 °F 94 °F (1989)
Min Temperature 44 °F 40 °F 27 °F (1982)
Degree Days  
Heating Degree Days 7 10  
Month to date heating degree days 167 280  
Since 1 July heating degree days 3952 4534  
Cooling Degree Days 0 0  
Month to date cooling degree days 3 0  
Year to date cooling degree days 9 0  
Growing Degree Days 8 (Base 50)    
Moisture  
Dew Point 40 °F    
Average Humidity 54    
Maximum Humidity 76    
Minimum Humidity 31    
Precipitation  
Precipitation 0.00 in 0.04 in 0.36 in (1957)
Month to date precipitation 0.95 0.73  
Year to date precipitation 1.37 2.82  
Snow  
Snow 0.00 in 0.10 in 2.00 in (1995)
Month to date snowfall 0.0 1.1  
Since 1 July snowfall 8.3 18.8  
Snow Depth 0.00 in    
Sea Level Pressure  
Sea Level Pressure 30.15 in    
Wind  
Wind Speed 9 mph (ENE)    
Max Wind Speed 20 mph    
Max Gust Speed 26 mph    
Visibility 10 miles    
Events      
T = Trace of Precipitation, MM = Missing Value Source: NWS Daily Summary

Daily Weather History Graph

Daily Weather History Graph

Search for Another Location

Airport or City:

Trip Planner

Search our weather history database for the weather conditions in past years. The results will help you decide how hot, cold, wet, or windy it might be!

Date:

Astronomy

Apr. 22, 2012 Rise Set
Actual Time 7:07 AM CDT 8:30 PM CDT
Civil Twilight 6:40 AM CDT 8:57 PM CDT
Nautical Twilight 6:08 AM CDT 9:29 PM CDT
Astronomical Twilight 5:34 AM CDT 10:03 PM CDT
Moon 7:43 AM CDT (4/22) 10:05 PM CDT (4/22)
Length of Visible Light 14h 16m
Length of Day
13h 22m
New Moon, 2% of the Moon is Illuminated
Apr 22
New Moon
Apr 29
First Quarter
May 5
Full
May 12
Last Quarter
May 20
New

Hourly Weather History & Observations

Time (CDT) Temp. Windchill Dew Point Humidity Pressure Visibility Wind Dir Wind Speed Gust Speed Precip Events Conditions
12:53 AM 55.0 °F - 42.1 °F 62% 30.05 in 10.0 mi East 9.2 mph - N/A   Clear
1:53 AM 53.1 °F - 41.0 °F 64% 30.05 in 10.0 mi East 3.5 mph - N/A   Clear
2:53 AM 51.1 °F - 41.0 °F 68% 30.06 in 10.0 mi Calm Calm - N/A   Clear
3:53 AM 48.0 °F - 39.0 °F 71% 30.07 in 10.0 mi NW 4.6 mph - N/A   Clear
4:53 AM 46.0 °F 43.1 °F 39.0 °F 76% 30.09 in 10.0 mi NNW 5.8 mph - N/A   Clear
5:53 AM 46.0 °F 42.5 °F 39.0 °F 76% 30.10 in 10.0 mi NNW 6.9 mph - N/A   Clear
6:53 AM 46.0 °F 42.5 °F 39.0 °F 76% 30.14 in 10.0 mi NNW 6.9 mph - N/A   Clear
7:53 AM 46.9 °F - 39.9 °F 77% 30.17 in 10.0 mi NNW 5.8 mph - N/A   Clear
8:53 AM 55.0 °F - 41.0 °F 59% 30.19 in 10.0 mi NNE 8.1 mph - N/A   Clear
9:53 AM 59.0 °F - 36.0 °F 42% 30.20 in 10.0 mi ENE 18.4 mph - N/A   Clear
10:53 AM 61.0 °F - 39.0 °F 44% 30.22 in 10.0 mi ENE 15.0 mph - N/A   Clear
11:53 AM 63.0 °F - 37.9 °F 40% 30.22 in 10.0 mi East 15.0 mph - N/A   Clear
12:53 PM 64.9 °F - 39.0 °F 39% 30.21 in 10.0 mi East 12.7 mph - N/A   Clear
1:53 PM 66.9 °F - 39.9 °F 37% 30.19 in 10.0 mi East 12.7 mph - N/A   Clear
2:53 PM 69.1 °F - 39.0 °F 33% 30.19 in 10.0 mi East 11.5 mph - N/A   Clear
3:53 PM 69.1 °F - 39.0 °F 33% 30.18 in 10.0 mi East 8.1 mph - N/A   Clear
4:53 PM 71.1 °F - 39.9 °F 32% 30.16 in 10.0 mi East 10.4 mph 18.4 mph N/A   Clear
5:53 PM 70.0 °F - 39.9 °F 33% 30.15 in 10.0 mi East 11.5 mph - N/A   Clear
6:53 PM 69.1 °F - 39.9 °F 35% 30.14 in 10.0 mi East 11.5 mph - N/A   Clear
7:53 PM 64.9 °F - 41.0 °F 42% 30.15 in 10.0 mi East 10.4 mph - N/A   Clear
8:53 PM 61.0 °F - 41.0 °F 48% 30.17 in 10.0 mi East 9.2 mph - N/A   Clear
9:53 PM 57.9 °F - 39.9 °F 51% 30.18 in 10.0 mi East 9.2 mph - N/A   Clear
10:53 PM 55.9 °F - 39.0 °F 53% 30.20 in 10.0 mi East 11.5 mph - N/A   Clear
11:53 PM 54.0 °F - 37.9 °F 55% 30.22 in 10.0 mi ESE 6.9 mph - N/A   Clear